Location: ?
(35.6439°N, 139.6382°E)
Time: 08:32:04
(UTC+00:00)

Daily predictions for brighter satellites

Satellite Brightness Start Highest point End
(mag) Time Altitude Azimuth Time Altitude Azimuth Time Altitude Azimuth
NOSS 3-4 (A) 4.5 12:02:58 10° NW 12:09:56 48° WSW 12:10:40 47° SW
NOSS 3-4 (C) 4.5 12:03:04 10° NW 12:10:02 48° WSW 12:10:45 47° SW
Terra 4.4 12:28:04 14° N 12:28:04 14° N 12:28:48 10° N
ATLAS 2AS CENTAUR R/B 4.3 12:36:09 10° WNW 12:41:31 24° WSW 12:41:31 24° WSW
CZ-4C R/B 4.3 12:51:23 10° NNW 12:56:07 29° NNE 12:56:07 29° NNE
Cosmos 2227 Rocket 4.3 16:33:25 22° ENE 16:33:25 22° ENE 16:35:46 10° NE
ADEOS II 4.1 16:41:14 10° NNE 16:43:28 25° NE 16:43:28 25° NE
Resurs 1-4 Rocket 4.4 16:52:14 10° N 16:53:33 17° N 16:53:33 17° N
ATLAS 3B R/B 4.4 16:56:57 20° ESE 16:57:32 20° ESE 17:02:12 10° ENE
USA 267 3.7 16:56:55 10° NE 17:02:07 58° ENE 17:02:07 58° ENE
ARIANE 5 R/B 3.9 17:06:07 10° NNE 17:09:17 36° NE 17:09:17 36° NE
USA 238 DEB 3.9 17:21:47 61° N 17:21:47 61° N 17:27:34 10° NNE
USA 238 3.9 17:21:52 62° N 17:21:52 62° N 17:27:41 10° NNE
CZ-2D R/B 4.3 17:17:34 10° NNW 17:19:08 17° NNW 17:19:08 17° NNW
H-2A R/B 4.4 17:29:20 18° N 17:29:20 18° N 17:30:29 10° N
Cosmos 2237 Rocket 3.6 17:27:28 10° NNW 17:30:08 29° NNW 17:30:08 29° NNW
NOSS 3-2 (A) 3.9 17:45:55 45° NNW 17:45:55 45° NNW 17:51:15 10° NNE
CZ-4B R/B 4.5 17:45:48 10° ESE 17:48:00 16° ENE 17:50:12 10° NNE
Cosmos 2297 Rocket 3.1 17:49:23 36° NNW 17:49:23 36° NNW 17:53:25 10° N
CENTAUR R/B 2.2 17:50:17 86° WNW 17:50:19 87° WNW 17:56:58 10° NNE
Cosmos 2279 Rocket 4.0 17:49:35 10° N 17:55:51 81° E 17:58:21 39° SSE
Meteor 2-4 Rocket 4.2 17:54:58 42° SSE 17:56:52 63° E 18:02:42 10° NNE
Cosmos 2221 Rocket 3.9 18:00:29 62° ENE 18:00:29 62° ENE 18:04:31 10° NNE
Meteor 1-18 Rocket 4.4 18:02:15 56° NW 18:02:15 56° NW 18:07:23 10° N
STARLINK-1056 4.4 18:06:52 49° NNE 18:06:52 49° NNE 18:10:03 10° NE
STARLINK-1054 4.2 18:11:39 51° N 18:11:39 51° N 18:15:00 10° NE
Cosmos 1048 Rocket 3.9 18:05:52 10° NNW 18:11:14 80° WSW 18:12:43 49° S
COBE Rocket 3.8 18:11:20 39° SSE 18:13:07 78° ENE 18:17:50 10° N
Okean 2 Rocket 3.6 18:09:09 10° N 18:13:37 58° E 18:16:39 20° SSE
BREEZE-M DEB 4.3 18:12:46 46° WNW 18:14:18 61° NNW 18:31:32 10° NE
Sich 1 Rocket 3.9 18:09:58 10° N 18:13:23 54° NNW 18:13:23 54° NNW
Cosmos 2227 Rocket 3.3 18:15:14 28° NW 18:15:14 28° NW 18:19:35 10° N
MSX 4.0 18:10:01 10° NNE 18:15:46 68° ESE 18:19:04 26° S
STARLINK-1062 4.1 18:16:25 51° N 18:16:25 51° N 18:19:57 10° NE
Cosmos 1125 Rocket 4.0 18:16:17 43° NW 18:16:17 43° NW 18:20:59 10° N
NOSS 3-2 (C) 3.7 18:16:08 43° WNW 18:16:44 45° NW 18:22:46 10° NNE
PSLV R/B 4.2 18:14:37 10° NNE 18:18:55 55° E 18:20:36 33° SSE
Geosat 4.4 18:15:34 10° NNE 18:20:32 58° ESE 18:22:43 32° S
STARLINK-1053 4.1 18:21:13 49° NNW 18:21:13 49° NNW 18:24:55 10° NE
ADEOS II 3.9 18:22:06 10° NNW 18:24:24 17° NW 18:24:24 17° NW
STARLINK-1061 4.2 18:25:58 45° NNW 18:25:58 45° NNW 18:29:51 10° NE
Cosmos 2180 Rocket 4.4 18:21:40 10° N 18:27:52 71° W 18:33:39 12° S
STARLINK-1067 4.2 18:30:47 41° NW 18:30:52 41° NW 18:34:49 10° NNE
STARLINK-1058 4.4 18:35:33 37° NW 18:35:50 38° NW 18:39:44 10° NNE
CZ-2C R/B 4.1 18:32:40 10° N 18:35:18 28° NW 18:35:18 28° NW
Cosmos 1356 3.6 18:35:25 10° N 18:38:49 71° E 18:41:12 18° SSE
Cosmos 1689 Rocket 3.9 18:37:25 10° SE 18:40:09 33° ENE 18:42:54 10° N
IDEFIX/ARIANE 42P 2.9 18:35:20 10° N 18:40:17 46° WNW 18:41:33 38° WSW
CBERS 1 LM4 rocket 4.4 18:38:18 10° N 18:43:17 73° WNW 18:46:17 25° SSW
USA 267 4.3 18:40:26 10° NNE 18:46:03 32° NNW 18:49:28 20° WNW
Gbstr 26 Del rocket 4.0 18:42:48 25° SSW 18:46:36 66° SE 18:51:54 10° NE
ATLAS 3B R/B 2.7 18:44:14 30° SW 18:47:36 63° WNW 18:54:11 10° NNE
Meteor 1-13 Rocket 4.2 18:43:43 21° SSW 18:47:39 69° W 18:53:18 10° N
Shenzhou-11 Module 3.5 18:48:57 22° SE 18:48:57 22° SE 18:50:59 10° E
ARIANE 5 R/B 4.3 18:46:48 10° NNW 18:49:38 16° WNW 18:49:38 16° WNW
SL-16 R/B 2.2 18:48:06 10° NNW 18:53:36 54° WSW 18:59:05 10° S
CZ-2C R/B 2.2 18:52:11 10° NNE 18:56:46 88° ESE 19:01:21 10° SSW
Okean 1 Rocket 3.8 18:56:32 10° N 19:00:50 54° E 19:05:09 10° SSE
ADEOS 3.5 18:58:51 10° N 19:04:03 70° WNW 19:09:12 10° SSW
Meteor 1-12 Rocket 4.4 19:01:02 10° NNW 19:06:47 53° W 19:12:24 10° SSW
Meteor 1-23 Rocket 4.2 19:06:18 10° S 19:11:59 80° W 19:17:47 10° N
PAYLOAD A 4.2 19:07:47 10° N 19:13:01 53° WNW 19:18:03 10° SSW
SJ-6F 4.4 19:09:59 10° N 19:14:08 74° WNW 19:18:16 10° SSW
Meteor 1-15 Rocket 4.4 19:09:34 10° N 19:15:11 80° E 19:20:52 10° S
CZ-4B R/B 4.0 19:12:30 10° NNE 19:16:21 68° E 19:20:02 10° S
Cosmos 1603 4.3 19:10:58 10° NNW 19:16:32 60° ENE 19:22:04 10° SSE
Cosmos 1674 Rocket 4.1 19:14:01 16° SW 19:17:10 38° W 19:21:16 10° N
USA 234 3.6 19:10:56 10° SE 19:17:26 71° NE 19:23:56 10° NW
PSLV R/B 4.2 19:15:01 10° SSE 19:19:12 74° ENE 19:23:23 10° N
CZ-4B R/B 2.6 19:18:55 20° SW 19:20:05 23° W 19:22:56 10° NW
SeaSat 1 2.9 19:15:31 10° SE 19:20:23 65° ENE 19:25:17 10° NNW
Cosmos 1092 Rocket 4.2 19:15:17 10° SSW 19:21:26 53° W 19:27:36 10° N
ATLAS 5 CENTAUR R/B 2.7 19:17:39 10° NNW 19:23:41 76° ENE 19:30:33 10° SE
Meteor 1-4 Rocket 4.1 19:22:47 18° W 19:23:52 20° WNW 19:26:43 10° NNW
Cosmos 2263 Rocket 2.3 19:18:18 10° SSW 19:23:53 62° WNW 19:29:32 10° NNE
Cosmos 1818 3.7 19:23:41 10° NW 19:28:58 53° WSW 19:34:12 10° S
STARLINK-43 4.2 19:26:30 10° NW 19:30:06 50° NE 19:33:42 10° ESE
Cosmos 1484 Rocket 2.8 19:28:30 10° NNE 19:32:18 81° ESE 19:36:00 10° S
Cosmos 2026 Rocket 4.0 19:26:54 10° SSW 19:32:54 59° W 19:38:53 10° N
CZ-4B R/B 3.1 19:32:58 10° N 19:37:22 86° WNW 19:41:52 10° SSW
Cosmos 1867 4.4 19:33:37 12° WSW 19:38:09 34° NW 19:43:06 10° NNE
Cosmos 1378 3.1 19:36:32 10° SSW 19:40:12 67° W 19:43:56 10° N
Cosmos 1805 3.5 19:38:01 10° N 19:41:54 74° E 19:45:46 10° SSE
CENTAUR R/B 4.3 19:38:10 10° WNW 19:42:09 17° NW 19:46:31 10° N
SL-24 R/B 4.5 19:42:36 10° S 19:48:09 74° WSW 19:52:52 10° NNW
